#timestamp,LO_Frequency,Hit,StdDev 
1544662815.4,286047000.5,N
1544662835.2,286046999.3,N
1544662855.0,286046999.1,N
1544662855.9,286046999.1,N
1544662875.8,286046998.4,N
1544662895.6,286046998.9,N
1544662915.4,286046997.0,N
1544662935.3,286046999.5,N
1544662955.1,286046996.5,N
1544662975.9,286047000.0,N
1544662995.7,286047004.0,N
1544663015.5,286047001.7,N
1544663035.4,286046999.8,N
1544663055.2,286047001.8,N
1544663075.0,286046998.7,N
1544663075.9,286046998.7,N
1544663095.8,286046998.0,N
1544663115.6,286047002.1,N
1544663135.5,286047002.0,N
1544663155.3,286046998.8,N
1544663175.1,286046995.3,N
1544663195.9,286046997.3,N
1544663215.7,286046997.8,N
1544663235.5,286047001.3,N
1544663255.4,286047002.1,N
1544663275.2,286047000.0,N
1544663295.1,286046998.7,N
1544663296.0,286046998.7,N
1544663315.8,286047002.2,N
1544663335.6,286046999.9,N
1544663355.5,286046999.1,N
1544663375.3,286046999.9,N
1544663395.1,286047002.4,N
1544663415.9,286047000.4,N
1544663435.7,286046998.7,N
1544663455.6,286046999.6,N
1544663475.4,286046998.2,N
1544663495.2,286047001.2,N
1544663515.1,286046999.0,N
1544663516.0,286046999.0,N
1544663535.8,286046996.6,N
1544663555.6,286046997.4,N
1544663575.5,286046995.2,N
1544663595.3,286046994.5,N
1544663615.2,286046997.5,N
1544663635.9,286046997.7,N
1544663655.7,286046997.0,N
1544663675.6,286046998.6,N
1544663695.4,286046997.3,N
1544663715.2,286046997.2,N
1544663735.1,286046999.5,N
1544663736.0,286046999.5,N
1544663755.8,286046998.1,N
1544663775.7,286046998.4,N
1544663795.5,286047001.9,N
1544663815.3,286047003.0,N
1544663835.2,286047005.6,N
1544663855.0,286047005.8,N
1544663855.9,286047005.8,N
1544663875.7,286047005.8,N
1544663895.6,286047005.5,N
1544663915.4,286047004.0,N
1544663935.3,286047000.0,N
1544663955.1,286046998.2,N
1544663956.0,286046998.2,N
1544663975.8,286046996.6,N
1544663995.7,286046996.7,N
1544664015.5,286046996.1,N
1544664035.3,286046994.2,N
1544664055.2,286046994.5,N
1544664075.0,286046992.2,N
1544664075.9,286046992.2,N
1544664095.8,286046993.1,N
1544664115.6,286046996.3,N
1544664135.4,286047000.9,N
1544664155.3,286047000.4,N
1544664175.1,286046999.7,N
1544664195.8,286046998.4,N
1544664215.7,286046996.8,N
1544664235.5,286046999.1,N
1544664255.4,286046995.1,N
1544664275.2,286046995.6,N
1544664295.0,286046995.3,N
1544664295.9,286046995.3,N
1544664315.8,286046994.0,N
1544664335.6,286046992.6,N
1544664355.5,286046991.2,N
1544664375.3,286046991.7,N
1544664395.1,286046994.1,N
1544664415.9,286046994.2,N
1544664435.7,286046992.9,N
1544664455.5,286046992.6,N
1544664475.4,286046998.0,N
1544664495.2,286046999.5,N
1544664515.1,286046999.0,N
1544664516.0,286046999.0,N
1544664535.8,286046998.0,N
1544664555.6,286046993.9,N
1544664575.5,286046995.9,N
1544664595.3,286046995.6,N
1544664615.2,286047000.8,N
1544664635.9,286047002.1,N
1544664655.7,286046999.9,N
1544664675.6,286047004.4,N
1544664695.4,286047003.9,N
1544664715.2,286047001.9,N
1544664735.1,286047000.3,N
1544664736.0,286047000.3,N
1544664755.8,286047001.9,N
1544664775.7,286047000.3,N
1544664795.5,286046998.7,N
1544664815.3,286046995.0,N
1544664835.2,286046994.9,N
1544664855.0,286046997.1,N
1544664855.9,286046997.1,N
1544664875.8,286046999.3,N
1544664895.6,286046999.2,N
1544664915.4,286046999.3,N
1544664935.3,286047002.8,N
1544664955.1,286047002.5,N
1544664975.8,286046999.9,N
1544664995.7,286047000.7,N
1544665015.5,286047000.8,N
1544665035.4,286047000.9,N
1544665055.2,286046997.6,N
1544665075.0,286046997.5,N
1544665075.9,286046997.5,N
1544665095.8,286046995.0,N
1544665115.6,286046997.2,N
1544665135.4,286046997.6,N
1544665155.3,286046997.2,N
1544665175.1,286046998.6,N
1544665195.9,286047004.2,N
1544665215.7,286047001.4,N
1544665235.5,286047003.4,N
1544665255.4,286047003.0,N
1544665275.2,286047003.5,N
1544665295.0,286047005.4,N
1544665295.9,286047005.4,N
1544665315.8,286047005.9,N
1544665335.6,286047001.3,N
1544665355.5,286047004.1,N
1544665375.3,286047004.4,N
1544665395.1,286047003.7,N
1544665415.9,286047003.4,N
1544665435.7,286047004.1,N
1544665455.5,286047004.7,N
1544665475.4,286047006.9,N
1544665495.2,286047006.2,N
1544665515.1,286047010.4,Y
1544665516.0,286047010.4,P
1544665535.8,286047009.8,N
1544665555.6,286047009.7,N
1544665575.5,286047009.8,N
1544665595.3,286047007.9,N
1544665615.1,286047008.8,N
1544665635.9,286047008.5,Y
1544665655.7,286047003.7,P
1544665675.6,286047009.1,P
1544665695.4,286047012.4,P
1544665715.2,286047007.7,N
1544665735.1,286047009.2,Y
1544665736.0,286047009.2,P
1544665755.8,286046995.1,P
1544665775.7,286046995.5,N
1544665795.5,286046995.2,N
1544665815.3,286046993.3,N
1544665835.2,286046994.6,N
1544665855.0,286046994.3,N
1544665855.9,286046994.3,N
1544665875.7,286046991.8,N
1544665895.6,286046993.0,N
1544665915.4,286046991.1,N
1544665935.3,286046989.6,N
1544665955.1,286046986.5,N
1544665956.0,286046986.5,N
1544665975.8,286046990.2,N
1544665995.7,286046991.2,N
1544666015.5,286046988.5,N
1544666035.3,286046989.0,N
1544666055.2,286046987.4,N
1544666075.0,286046987.8,N
1544666075.9,286046987.8,N
1544666095.8,286046987.8,N
1544666115.6,286046988.2,N
1544666135.4,286046986.7,N
1544666155.3,286046984.4,N
1544666175.1,286046985.3,N
1544666195.8,286046990.5,N
1544666215.7,286046991.9,N
1544666235.5,286046989.0,N
1544666255.3,286046991.3,N
1544666275.2,286046987.3,N
1544666295.0,286046987.2,Y
1544666295.9,286046987.2,P
1544666315.8,286046998.2,N
1544666335.6,286046998.2,N
1544666355.4,286047001.5,N
1544666375.3,286047001.9,N
1544666395.1,286046998.5,N
